MAZAALAI (NUMSAT-1) (42822 NORAD) Tracking and Keplerian Element Data

This shows tracking and keplerian element data for the satellite.

Feedback or suggestion? Click here.




ElementValue
Catalog42822
NameMAZAALAI (NUMSAT-1)
Epoch Orbit10573
Epoch Day131.43194823
Epoch Year2019
RAAN100.7046
Inclination51.6054
Eccentricity0.0005179
Argument of Perigee246.5694
Mean Anonmoly204.7401
Mean Motion16.39672911
Decay Rate0.10190864
L11 42822U 98067MW 19131.43194823 .10190864 12355-4 76666-3 0 9990
L22 42822 51.6054 100.7046 0005179 246.5694 204.7401 16.39672911105736



Live tracking and technical data element details for MAZAALAI (NUMSAT-1) (NORAD 42822). MAZAALAI (NUMSAT-1) can be tracked NOW for your location showing map with azimuth and elevation plus other details from your city location.







IsCatalogInMostPopularTable: catalog: 42822, numindb: 688
Update: records affected: 1



GetName: 42822 MAZAALAI (NUMSAT-1)

Hit Count: updated at: Fri, 02 Dec 2022 12:36:55 GMT